Dewpoint
3 3 2 2 2 2 1 -1 -4 -7 -9 -13 -17 -18 -18 -17 -17 -16 -13 -11 -13 -15 -9 11 14 15 15 15 15 14 11 10 9 10 10 12 12 12 12 12 12 13 13 14 15
-0 -1 -2 -2 -3 -2 0 0 0 -1 -4 -7 -12 -15 -18 -18 -18 -15 -11 -11 -12 -14 4 10 13 14 14 13 14 13 11 9 8 7 8 11 11 12 11 12 12 13 13 15 15
-6 -7 -7 -7 -7 -7 -6 -4 -3 -2 -0 -2 -7 -11 -14 -17 -11 -11 -11 -10 -11 -12 3 9 9 12 10 11 13 11 10 9 6 7 9 10 11 12 11 11 11 13 14 15 15
-9 -9 -10 -10 -9 -9 -8 -7 -6 -5 -3 -1 -2 -7 -10 -15 -9 -6 -8 -8 -9 -6 4 6 9 10 9 11 12 13 10 10 7 8 9 11 11 11 11 9 11 13 14 15 15
-15 -16 -16 -17 -17 -16 -14 -12 -9 -7 -5 -3 -1 -4 -7 -3 -10 -13 -9 -11 -8 4 5 7 10 8 7 9 10 12 9 8 8 8 7 7 9 9 11 10 10 13 14 14 14
-16 -17 -18 -20 -20 -21 -20 -17 -7 -6 -5 -3 -1 -2 -4 -5 -14 -16 -10 -12 -4 6 5 7 8 7 6 8 10 8 9 7 4 3 3 4 7 8 9 11 12 13 14 14 14
-22 -22 -23 -23 -22 -21 -23 -18 -6 -4 -2 -2 -1 -2 -0 -6 -13 -16 -1 2 7 6 4 6 7 7 7 7 5 6 3 0 1 -1 -0 1 3 5 7 11 13 13 13 13 13
-23 -25 -26 -26 -27 -24 -22 -14 -7 -3 -2 -1 -1 -2 0 -6 -10 -7 2 3 8 6 3 5 7 7 5 1 -2 2 -2 1 -0 -2 -2 -1 3 3 7 11 13 13 13 13 13
-22 -25 -26 -27 -28 -25 -19 -10 -5 -3 -1 -2 -2 2 -2 -8 -11 -8 2 3 8 7 4 4 5 6 5 1 -1 -2 2 3 1 -2 -1 0 3 4 6 10 12 13 13 13 13
-21 -23 -25 -26 -27 -23 -15 -7 -4 -2 4 4 5 2 -2 -7 -7 -12 -4 -1 8 5 4 5 3 3 5 4 3 1 0 0 3 0 -1 2 3 1 6 10 11 12 13 13 13
-18 -21 -23 -24 -25 -20 -20 -2 1 4 -2 3 4 -1 -1 -4 -3 -10 -12 3 6 2 -1 -2 -1 -0 -2 -2 -2 -2 -1 0 -0 -1 -1 1 2 1 6 9 10 12 13 13 13
-16 -17 -21 -23 -22 -17 -9 -4 -2 -2 -3 -5 -4 -1 1 1 -1 -8 -7 -2 0 2 -4 -4 -2 -6 -5 -5 -4 -3 -3 -1 -1 -2 -2 1 2 1 5 9 10 11 12 12 13
-15 -17 -21 -23 -19 -7 -2 -1 -1 -2 -3 -6 -5 -5 -4 -3 -2 -5 -6 -6 -3 -2 -5 -5 -7 -7 -7 -5 -3 -3 -3 -2 -1 -2 -3 -1 1 1 2 7 8 10 11 11 12
-13 -17 -18 -22 -6 -5 -5 -3 -1 -2 -2 -8 -6 -5 -4 -3 -3 -3 -10 -7 -6 -3 -5 -6 -8 -7 -6 -5 -5 -3 -6 -5 -4 -2 1 -1 4 2 1 4 6 7 10 11 12
-12 -15 -17 -12 -6 -3 -3 -2 -2 -0 -7 -5 -7 -7 -6 -4 -5 -5 -4 -8 -8 -7 -6 -5 -7 -6 -5 -6 -6 -6 -9 -5 -5 -4 -2 -1 2 1 1 2 4 5 8 11 11
-12 -12 -12 -4 -2 -4 -4 -5 0 -2 -6 -4 -10 -8 -7 -5 -5 -5 -3 -11 -11 -9 -8 -7 -9 -10 -7 -7 -8 -9 -7 -7 -5 -5 -1 -0 1 1 1 3 2 3 6 9 11
-12 -11 -8 -9 -4 -6 -7 -2 -5 -6 -8 -2 -3 -5 -6 -7 -4 -5 -3 -2 -2 -1 -4 -6 -7 -7 -8 -5 -5 -6 -4 -2 -3 -3 -2 -3 -0 1 -1 -1 1 1 3 8 11
-11 -11 -5 -5 -5 -7 -4 -6 -7 -7 -1 -3 -3 -3 -3 -5 -6 -6 -3 -2 -3 -3 -3 -2 -3 -6 -7 -5 -3 -4 -5 -6 -1 -5 -5 -4 -0 -0 -2 -3 -2 -1 -1 5 9
-10 -3 -4 -5 -5 -3 -5 -9 -10 -0 -1 -2 -3 -2 -2 -3 -4 -4 -5 -3 -3 -4 -1 -2 -2 -8 -7 -7 -6 -3 -2 -8 -9 -7 -5 -7 -5 -5 -4 -3 -2 -2 -2 -0 8
-7 -3 -5 -5 -5 -2 -9 -6 -4 -4 -4 -3 -0 -2 1 -1 -1 -3 -5 -1 -2 -4 -4 -2 -0 -6 -7 -7 -7 -5 -6 -4 -6 -1 -2 -7 -5 -3 -3 -2 -2 -2 -2 -1 3
-2 -5 -5 -5 -5 -9 -8 -7 -7 -7 -5 -3 -2 -1 -1 -0 -1 -2 -0 -0 -2 -2 0 -2 -2 -2 -5 -4 -4 -5 -4 -5 -7 -6 -4 -4 -7 -7 -4 -2 -2 -2 -2 -1 2
-2 -8 -4 -4 -7 -7 -6 -5 -6 -6 -5 -4 -3 -4 -1 -0 0 -0 2 1 -1 -0 2 -1 -1 1 -3 -6 -8 -7 -5 -4 -4 -0 -4 -5 -8 -10 -8 -6 -3 -4 -3 -2 -1
-2 -3 -4 -5 -5 -5 -5 -5 -6 -5 -4 -2 0 -2 -2 -1 1 0 1 -2 -3 -0 3 1 0 2 0 -3 -5 -5 -6 -6 -6 -5 -0 -3 -6 -7 -5 -5 -3 -3 -2 -1 -0
-2 -4 -6 -5 -4 -5 -4 -4 -4 -6 -5 -5 3 2 1 -3 -3 -0 -0 -3 -4 -3 0 1 1 1 1 0 -3 -2 -4 -5 -5 -2 -3 -2 -5 -6 -7 -5 -6 -6 -5 -3 0
-1 -4 -2 -3 -4 -3 -3 -5 -4 -4 -5 -6 2 3 4 2 -3 -2 -2 -3 -4 -3 -3 -1 3 2 1 0 -0 -1 -3 -4 -3 -3 -1 -4 -3 -4 -5 -5 -5 -5 -5 -5 -4
-1 -1 -0 -2 -2 -3 -4 -3 -5 -5 -4 -4 2 -1 -2 4 4 2 -1 -2 -2 -2 -3 -3 2 1 2 -1 -2 -1 -1 -2 -3 -3 -2 -3 -2 -5 -5 -5 -5 -4 -3 -3 -3
1 1 2 -1 -2 -2 -2 -5 -4 -4 -5 -4 -4 -4 -4 -2 0 -1 -3 -3 -4 -2 -2 -2 -2 1 2 -1 -1 2 -0 -1 -1 -2 -2 0 -1 -3 -2 -3 -3 -4 -4 -4 -4
Wind_Speed
19 19 20 20 20 19 19 19 18 19 18 18 17 18 16 18 18 21 26 19 14 17 11 20 21 19 18 12 8 6 6 3 5 2 7 12 9 7 7 16 9 6 13 26 32
19 19 19 20 20 21 20 20 20 19 19 19 18 17 17 17 19 26 25 19 16 19 19 25 25 22 21 14 9 9 8 5 4 5 5 10 7 11 9 16 14 10 16 32 33
20 20 21 21 21 21 21 21 21 22 21 20 19 17 16 14 15 12 12 14 24 23 23 21 21 22 18 13 13 10 9 5 4 8 5 11 10 11 9 12 16 16 26 34 34
22 23 23 22 22 22 23 23 24 24 23 22 20 17 13 9 5 4 10 2 14 26 24 23 26 25 18 12 16 9 12 5 3 3 4 5 9 10 11 7 15 17 27 34 35
23 23 24 24 23 24 24 25 25 24 23 22 21 17 11 10 17 7 10 0 16 28 29 30 31 26 18 17 13 17 9 6 12 9 8 5 7 4 11 10 18 21 28 32 31
26 27 28 26 24 26 26 27 25 24 22 20 20 17 10 16 12 13 20 17 15 30 30 30 30 24 16 12 17 10 17 14 12 12 10 10 10 11 11 15 20 26 29 32 32
27 28 29 29 28 28 27 26 26 22 18 18 18 15 15 24 13 11 13 19 24 30 32 29 20 24 9 11 12 18 11 11 14 15 10 10 14 15 9 21 22 25 28 30 31
28 30 30 31 30 29 27 23 25 18 12 12 14 12 12 11 21 13 15 17 22 23 25 25 16 27 10 5 7 16 16 14 17 19 15 13 10 15 16 25 24 25 28 30 31
30 31 32 33 32 27 25 23 20 16 9 6 7 10 8 13 18 22 17 17 23 22 22 22 19 23 22 13 14 14 14 18 12 12 10 15 12 8 18 23 24 26 28 30 30
31 32 32 33 34 22 22 20 17 13 3 1 4 7 14 6 9 24 21 16 27 23 21 22 20 17 17 17 18 18 19 15 15 12 13 13 14 4 13 21 22 24 26 28 31
30 31 33 33 34 16 20 13 8 4 7 12 3 7 0 4 9 18 28 25 23 28 20 28 20 26 27 23 18 14 18 18 17 13 11 15 14 8 14 20 22 24 27 29 31
34 34 32 32 25 18 14 5 8 8 18 21 29 30 21 3 11 18 34 24 28 24 23 18 28 24 23 21 20 20 17 20 16 10 8 12 12 9 12 18 21 25 29 30 28
35 34 33 31 17 20 11 8 12 14 9 16 19 22 20 26 14 26 40 34 27 29 31 24 16 23 24 22 23 24 24 20 16 9 12 14 15 15 12 15 19 23 24 27 29
34 33 33 30 10 19 6 19 16 10 6 7 8 7 18 20 15 23 40 38 20 29 29 27 18 24 24 25 24 25 23 19 17 15 15 16 14 18 19 17 16 22 26 28 31
33 30 28 21 16 11 21 23 14 2 6 8 6 6 8 23 9 30 33 39 22 22 28 22 26 23 28 28 25 22 18 16 21 17 17 20 11 17 14 16 18 20 25 29 32
31 28 20 17 13 17 23 22 2 6 9 3 5 7 8 19 10 15 29 38 31 23 25 27 16 24 23 19 22 17 16 15 16 16 19 23 20 18 18 18 18 19 23 28 31
30 23 12 16 17 25 22 9 7 9 5 5 6 3 8 11 19 14 27 31 23 24 29 26 28 19 17 23 19 23 18 10 14 17 20 20 20 19 9 20 20 17 23 25 31
29 17 12 16 21 22 13 8 13 3 10 20 13 18 15 11 13 23 21 26 32 26 17 21 21 29 24 27 20 28 24 12 18 15 17 18 18 21 24 24 11 22 24 23 27
26 12 9 20 19 14 10 8 8 13 15 15 20 10 10 6 6 12 23 23 32 29 25 22 26 30 21 22 25 24 25 26 11 6 9 16 20 16 10 18 24 28 22 24 27
24 10 9 22 16 9 8 6 8 11 17 17 16 6 8 5 8 7 16 4 16 33 14 17 17 19 25 27 25 20 24 21 15 17 17 14 19 13 22 22 19 21 25 23 28
15 8 12 20 10 9 5 8 14 18 14 10 16 14 12 12 10 6 2 8 8 6 3 15 15 23 23 26 27 22 18 23 18 16 14 12 14 16 19 17 21 21 26 26 26
14 6 16 17 4 5 7 10 13 16 18 16 11 15 15 12 10 4 4 9 10 6 14 16 10 12 26 23 25 29 24 28 13 23 19 13 8 5 9 17 18 21 25 25 24
14 8 13 14 5 6 10 8 10 11 13 11 10 10 16 14 5 3 2 5 12 10 1 5 14 15 15 20 21 30 29 25 26 15 21 17 5 10 9 3 4 9 10 10 15
10 5 7 6 3 9 10 8 10 10 8 17 7 18 16 16 11 5 3 4 9 10 9 6 11 22 19 18 19 26 29 28 27 20 18 18 15 12 4 11 5 6 5 5 10
6 5 5 7 11 14 12 9 10 9 11 12 4 10 8 7 11 12 7 11 3 9 7 6 14 7 16 4 6 14 28 30 30 27 25 19 21 17 8 8 8 8 12 12 7
7 6 5 15 11 13 10 8 9 9 11 10 6 15 14 4 11 8 9 6 5 9 8 6 4 5 14 10 8 11 13 15 23 30 27 26 23 11 7 9 20 18 18 19 21
5 7 5 7 8 9 6 10 14 15 8 6 10 16 12 10 13 16 18 18 15 11 8 6 5 6 15 11 10 15 21 21 19 19 18 23 16 16 18 14 18 18 19 18 18
Wind_Direction
338 335 333 330 326 318 312 307 303 300 295 289 279 279 279 281 280 273 260 248 230 221 201 167 175 178 183 203 218 236 257 168 112 187 95 143 135 118 114 139 156 153 148 156 157
349 346 341 337 332 326 317 310 303 297 293 289 284 279 282 285 285 272 265 256 230 214 185 178 179 176 188 203 206 229 264 89 68 50 348 159 158 141 146 155 147 128 133 153 158
356 351 346 341 337 331 323 317 309 305 295 288 282 279 282 294 303 263 248 228 217 211 192 186 184 182 200 202 205 206 260 119 124 22 15 154 158 154 142 173 168 152 153 161 166
353 347 343 341 337 329 322 316 310 305 298 290 282 276 277 279 262 191 175 227 197 186 185 187 186 192 203 200 207 246 231 235 149 26 52 163 154 176 174 124 166 166 165 168 174
351 346 342 340 335 327 322 317 311 304 295 285 278 270 270 247 243 265 203 323 180 174 185 186 190 195 206 197 198 224 242 240 236 249 255 248 213 198 184 144 162 163 170 176 179
352 347 343 341 338 330 322 317 314 312 291 274 265 265 238 247 254 238 241 243 196 180 187 191 193 197 220 212 211 204 235 249 254 256 243 237 218 212 190 166 159 166 175 181 184
351 347 344 339 338 331 324 318 320 317 292 267 252 248 240 242 247 233 208 199 186 185 187 192 197 195 205 211 221 231 243 233 234 237 237 232 243 220 200 176 173 174 179 185 189
351 348 346 343 338 334 327 320 318 320 305 257 244 228 247 262 231 227 188 187 190 193 197 193 200 204 217 199 201 221 230 235 224 220 219 215 248 181 187 181 183 181 181 184 192
350 349 348 348 344 336 330 325 317 312 326 260 216 198 252 243 226 202 183 185 183 186 195 193 203 215 213 231 218 207 226 212 173 200 178 210 239 79 181 190 187 186 184 185 190
350 348 347 348 345 337 337 330 319 319 304 218 193 211 231 225 199 193 188 181 173 168 174 191 203 210 216 210 216 211 220 238 218 183 214 214 238 219 181 194 192 190 189 192 193
351 348 345 348 345 337 349 344 324 247 264 242 265 246 176 206 168 190 186 167 169 177 185 188 199 208 206 216 227 241 226 227 223 223 254 251 251 251 186 197 195 192 196 199 202
351 349 346 347 351 347 4 51 54 338 299 269 252 243 235 245 206 186 174 173 177 185 193 184 215 211 216 213 223 228 228 229 239 212 254 257 248 239 189 204 200 198 201 205 202
354 350 346 348 349 1 33 39 336 333 266 282 237 235 223 212 220 185 184 191 188 189 196 200 212 213 207 211 214 224 224 227 236 191 228 259 255 244 209 205 207 208 211 205 204
355 349 348 351 12 359 354 331 322 318 277 208 209 237 191 192 220 199 196 191 198 201 198 219 197 199 208 215 207 222 217 242 246 239 247 212 258 225 217 202 212 211 206 209 207
353 348 349 355 344 354 330 328 317 223 273 99 141 166 174 197 135 193 197 202 209 205 202 205 212 202 210 212 213 235 228 214 235 241 247 246 246 256 199 219 213 215 210 210 205
353 348 352 355 349 330 331 330 278 227 236 139 132 189 178 212 218 174 185 205 217 219 214 225 208 213 220 212 221 219 233 223 232 233 239 236 238 243 232 218 222 211 211 209 208
354 350 355 354 335 331 335 320 234 244 69 59 1 337 264 197 210 184 192 196 201 206 215 213 222 217 208 214 208 199 198 194 213 220 234 227 234 233 234 221 214 224 209 209 205
354 349 344 349 339 331 336 256 250 343 19 343 319 296 245 204 225 205 191 206 213 209 192 207 217 203 199 208 196 197 205 212 211 214 224 214 234 234 229 239 248 226 238 204 204
356 349 356 339 337 335 305 253 289 15 343 324 311 279 199 206 287 214 217 214 207 213 225 199 225 186 201 199 202 192 214 217 250 218 264 220 216 247 247 226 221 229 226 211 200
356 345 348 342 336 331 273 343 345 339 329 317 298 356 318 345 273 219 190 33 239 209 241 256 221 184 195 198 213 206 202 215 229 237 231 226 232 224 211 213 220 215 215 207 203
354 327 338 345 345 317 1 342 324 326 330 312 319 310 303 302 307 274 68 46 354 215 215 243 235 188 185 202 195 200 202 214 222 229 217 233 234 212 229 210 213 208 211 209 206
355 327 341 357 322 349 1 334 323 318 334 305 287 283 293 306 290 273 128 25 352 281 217 220 232 218 204 199 214 202 204 201 215 213 239 279 249 119 212 215 215 217 212 217 213
344 316 344 6 3 8 338 313 323 338 348 339 305 339 297 287 276 316 16 40 6 15 319 167 222 210 200 203 204 216 205 211 217 234 212 220 197 129 100 214 165 215 230 239 242
342 326 352 347 6 335 346 340 331 345 326 336 7 318 311 255 249 287 333 25 351 10 325 256 243 224 217 210 197 215 207 214 211 222 227 210 234 165 203 160 146 144 163 188 205
356 14 348 325 335 330 318 304 317 347 338 315 127 5 338 285 267 256 338 308 280 4 340 323 222 232 249 305 287 233 214 210 216 224 227 227 213 238 214 235 239 272 295 291 264
326 335 297 300 298 312 296 303 320 334 329 321 359 325 326 315 311 323 338 333 325 334 328 334 206 239 243 223 234 236 236 240 232 228 232 241 248 239 208 281 270 277 280 279 283
295 294 274 287 294 309 297 321 312 313 303 270 311 319 319 336 301 295 296 285 280 291 307 290 293 240 227 206 253 243 225 220 225 233 236 236 243 251 259 254 253 264 275 276 274
Height
1521 1519 1516 1514 1511 1508 1505 1503 1501 1499 1498 1496 1495 1494 1494 1493 1493 1491 1487 1491 1493 1496 1497 1501 1507 1509 1513 1512 1512 1511 1498 1488 1486 1484 1487 1492 1495 1502 1505 1509 1512 1517 1518 1525 1532
1520 1517 1514 1511 1508 1505 1502 1499 1497 1496 1494 1492 1491 1491 1490 1489 1488 1483 1482 1485 1490 1492 1497 1499 1503 1506 1509 1508 1509 1505 1492 1482 1484 1485 1485 1488 1492 1500 1503 1508 1512 1517 1521 1527 1533
1520 1516 1513 1509 1506 1502 1498 1495 1493 1491 1490 1488 1488 1488 1487 1487 1486 1476 1474 1477 1481 1487 1495 1499 1503 1505 1503 1503 1503 1498 1489 1487 1487 1490 1487 1487 1492 1497 1500 1505 1509 1515 1521 1526 1533
1519 1515 1511 1507 1503 1499 1495 1492 1489 1486 1484 1483 1483 1484 1485 1486 1480 1473 1473 1474 1476 1483 1493 1496 1500 1500 1497 1498 1498 1496 1491 1490 1487 1491 1490 1489 1491 1494 1498 1500 1507 1515 1520 1525 1530
1518 1514 1509 1505 1501 1496 1492 1488 1484 1481 1480 1478 1478 1480 1483 1484 1474 1473 1472 1472 1474 1482 1487 1490 1494 1494 1491 1492 1494 1494 1488 1490 1490 1490 1490 1491 1491 1491 1496 1501 1506 1513 1519 1525 1530
1516 1511 1506 1502 1498 1492 1487 1483 1479 1476 1473 1472 1473 1476 1480 1479 1469 1468 1469 1470 1472 1479 1484 1488 1488 1491 1489 1488 1490 1486 1489 1488 1487 1487 1487 1488 1489 1492 1493 1500 1505 1510 1517 1522 1527
1515 1509 1504 1499 1494 1488 1483 1478 1474 1470 1467 1466 1468 1471 1473 1465 1463 1464 1465 1468 1472 1475 1480 1484 1488 1490 1488 1488 1488 1485 1489 1484 1484 1483 1483 1486 1486 1485 1489 1497 1503 1508 1513 1519 1524
1513 1508 1502 1496 1491 1485 1479 1473 1469 1466 1463 1462 1464 1467 1464 1456 1458 1461 1464 1468 1473 1477 1481 1484 1487 1488 1487 1485 1484 1484 1482 1482 1470 1475 1479 1483 1480 1475 1485 1491 1498 1503 1509 1515 1521
1511 1506 1501 1495 1488 1482 1476 1470 1466 1463 1461 1460 1463 1465 1458 1450 1452 1457 1461 1464 1470 1475 1479 1484 1487 1485 1485 1485 1480 1474 1475 1472 1469 1469 1470 1477 1474 1474 1479 1487 1492 1498 1504 1510 1516
1509 1504 1498 1492 1486 1480 1474 1469 1463 1461 1461 1461 1462 1467 1450 1447 1447 1452 1458 1463 1467 1473 1479 1482 1484 1478 1475 1476 1476 1472 1474 1464 1467 1464 1467 1469 1470 1466 1476 1482 1487 1495 1501 1506 1510
1509 1503 1496 1491 1483 1478 1474 1470 1470 1466 1463 1453 1450 1444 1445 1445 1445 1448 1454 1461 1466 1470 1466 1470 1472 1462 1461 1464 1464 1459 1463 1466 1460 1460 1466 1465 1464 1462 1471 1477 1481 1489 1495 1499 1503
1507 1501 1495 1489 1483 1479 1476 1476 1477 1479 1459 1446 1439 1442 1442 1443 1442 1445 1450 1453 1455 1455 1460 1466 1455 1455 1461 1462 1466 1467 1470 1465 1458 1458 1466 1461 1461 1457 1465 1471 1475 1481 1487 1492 1500
1507 1501 1494 1488 1483 1481 1479 1479 1478 1476 1466 1432 1430 1429 1432 1439 1435 1434 1440 1440 1442 1446 1445 1444 1444 1452 1455 1459 1466 1466 1465 1463 1464 1460 1460 1463 1463 1459 1460 1466 1470 1474 1480 1487 1493
1506 1500 1494 1488 1486 1483 1484 1481 1476 1475 1457 1416 1421 1419 1424 1429 1429 1428 1432 1436 1437 1437 1440 1440 1437 1445 1450 1454 1458 1460 1458 1462 1462 1466 1474 1453 1471 1447 1447 1456 1462 1466 1472 1477 1485
1505 1499 1493 1487 1486 1486 1485 1477 1473 1475 1442 1408 1416 1419 1419 1417 1407 1418 1426 1432 1425 1428 1432 1430 1434 1439 1444 1443 1449 1451 1448 1458 1463 1465 1466 1458 1466 1448 1438 1449 1450 1456 1462 1470 1475
1504 1498 1493 1490 1488 1486 1480 1475 1475 1464 1434 1405 1412 1413 1415 1415 1410 1411 1419 1427 1429 1425 1424 1424 1426 1429 1431 1439 1442 1448 1453 1455 1460 1461 1467 1451 1453 1445 1436 1441 1441 1446 1454 1461 1468
1502 1496 1492 1490 1489 1481 1477 1477 1463 1439 1407 1416 1416 1412 1408 1405 1409 1410 1411 1415 1413 1424 1421 1423 1419 1424 1427 1435 1438 1444 1451 1462 1470 1461 1456 1437 1446 1437 1423 1425 1434 1438 1444 1452 1461
1501 1495 1493 1490 1486 1479 1477 1471 1456 1425 1435 1433 1429 1420 1413 1401 1404 1402 1405 1406 1407 1403 1403 1421 1425 1413 1412 1420 1428 1436 1436 1438 1461 1447 1445 1433 1438 1423 1420 1426 1430 1434 1437 1443 1453
1498 1495 1496 1492 1484 1479 1476 1460 1445 1455 1460 1451 1429 1414 1400 1407 1407 1405 1397 1395 1396 1392 1399 1402 1404 1396 1404 1412 1415 1427 1431 1418 1422 1420 1431 1414 1417 1414 1413 1415 1421 1427 1429 1434 1443
1497 1495 1494 1489 1484 1480 1470 1467 1462 1470 1467 1456 1441 1427 1420 1413 1411 1399 1389 1403 1389 1390 1391 1390 1401 1389 1402 1409 1408 1407 1418 1435 1422 1448 1450 1423 1421 1417 1407 1413 1413 1418 1421 1427 1434
1499 1493 1492 1487 1484 1477 1471 1473 1473 1474 1470 1463 1447 1441 1430 1426 1417 1401 1399 1413 1408 1394 1404 1397 1390 1387 1392 1394 1398 1409 1411 1414 1413 1415 1427 1432 1411 1389 1399 1403 1408 1411 1415 1420 1427
1502 1492 1492 1488 1483 1481 1477 1482 1480 1471 1468 1462 1456 1448 1438 1431 1422 1411 1410 1415 1421 1413 1406 1399 1389 1388 1386 1385 1388 1393 1401 1404 1416 1427 1416 1410 1402 1387 1392 1396 1404 1407 1412 1416 1422
1504 1500 1496 1491 1483 1484 1487 1480 1477 1472 1471 1468 1461 1451 1448 1436 1430 1422 1419 1427 1424 1415 1408 1401 1393 1396 1390 1387 1385 1384 1388 1393 1400 1397 1411 1422 1409 1392 1397 1400 1406 1408 1412 1416 1419
1507 1497 1494 1494 1494 1488 1484 1479 1475 1472 1472 1470 1475 1466 1452 1436 1430 1426 1422 1425 1425 1423 1422 1416 1390 1383 1379 1379 1378 1390 1382 1387 1394 1399 1400 1401 1398 1395 1398 1402 1405 1409 1412 1416 1420
1509 1503 1505 1494 1491 1492 1489 1479 1474 1474 1473 1468 1474 1478 1473 1448 1429 1430 1429 1427 1423 1425 1418 1411 1398 1400 1386 1393 1394 1377 1379 1381 1385 1388 1394 1392 1395 1394 1396 1400 1404 1408 1411 1414 1417
1511 1508 1505 1500 1499 1495 1486 1479 1474 1475 1476 1468 1474 1470 1467 1469 1465 1451 1443 1432 1426 1427 1423 1417 1406 1407 1403 1398 1400 1398 1390 1384 1380 1380 1386 1388 1390 1386 1395 1399 1401 1407 1411 1411 1411
1508 1507 1505 1498 1493 1490 1485 1481 1480 1478 1472 1472 1470 1465 1460 1461 1462 1456 1450 1445 1440 1437 1430 1426 1412 1412 1400 1393 1399 1402 1389 1389 1389 1385 1388 1392 1394 1395 1396 1401 1404 1405 1406 1407 1408